1298160029126,0.680955
1298160089126,0.677000
1298160149126,0.671067
1298160209126,0.674519
1298160269126,0.677209
1298160329126,0.677854
1298160389126,0.687496
1298160449126,0.668262
1298160509126,0.675664
1298160569126,0.680151
1298160629126,0.672507
1298160689126,0.677309
1298160749126,0.680090
1298160809126,0.688396
1298160869126,0.688950
1298160929126,0.691824
1298160989126,0.682975
1298161049126,0.691079
1298161109126,0.691161
1298161169126,0.692125
1298161229126,0.686212
1298161289126,0.673752
1298161349126,0.674077
1298161409126,0.677921
1298161469126,0.674783
1298161529126,0.670974
1298161589126,0.669137
1298161649126,0.676617
1298161709126,0.671718
1298161769126,0.678166
1298161829126,0.676655
1298161889126,0.672070
1298161949126,0.669080
1298162009126,0.675632
1298162069126,0.672358
1298162129126,0.670582
1298162189126,0.669759
1298162249126,0.670020
1298162309126,0.674188
1298162369126,0.667672
1298162429126,0.668383
1298162489126,0.666722
1298162549126,0.670341
1298162609126,0.664854
1298162669126,0.672498
1298162729126,0.675967
1298162789126,0.675034
1298162849126,0.664832
1298162909126,0.669874
1298162969126,0.667937
1298163029126,0.676598
1298163089126,0.673658
1298163149126,0.670934
1298163209126,0.675446
1298163269126,0.672555
1298163329126,0.673564
1298163389126,0.671700
1298163449126,0.679821
1298163509126,0.675156
1298163569126,0.681200
1298163629137,0.674672
1298163689137,0.685000
1298163749137,0.690402
1298163809137,0.688268
1298163869137,0.690986
1298163929137,0.696051
1298163989137,0.695761
1298164049137,0.692948
1298164109137,0.695347
1298164169137,0.691234
1298164229137,0.702768
1298164289137,0.701519
1298164349137,0.703069
1298164409137,0.708045
1298164469137,0.710353
1298164529137,0.703120
1298164589137,0.711616
1298164649137,0.713827
1298164709137,0.716372
1298164769137,0.737760
1298164829137,0.718750
1298164889137,0.717181
1298164949137,0.721147
1298165009137,0.728954
1298165069137,0.729756
1298165129137,0.731803
1298165189137,0.728673
1298165249137,0.723551
1298165309137,0.725985
1298165369137,0.732797
1298165429137,0.721814
1298165489137,0.726045
1298165549137,0.725742
1298165609137,0.732670
1298165669137,0.727681
1298165729137,0.726075
1298165789137,0.733289
1298165849137,0.726091
1298165909137,0.723064
1298165969137,0.722821
1298166029137,0.717640
1298166089137,0.716006
1298166149137,0.720262
1298166209137,0.715807
1298166269137,0.723495
1298166329137,0.714090
1298166389137,0.716621
1298166449137,0.714430
1298166509137,0.715251
1298166569137,0.714459
1298166629137,0.705586
1298166689137,0.711527
1298166749137,0.708611
1298166809137,0.707908
1298166869137,0.706899
1298166929137,0.699588
1298166989137,0.695858
1298167049137,0.692479
1298167109137,0.695640
1298167169137,0.699855
1298167229149,0.693772
1298167289149,0.693779
1298167349149,0.697928
1298167409149,0.689876
1298167469149,0.690680
1298167529149,0.685892
1298167589149,0.686344
1298167649149,0.688643
1298167709149,0.684561
1298167769149,0.685809
1298167829149,0.679314
1298167889149,0.684013
1298167949149,0.686458
1298168009149,0.684442
1298168069149,0.689381
1298168129149,0.681233
1298168189149,0.681632
1298168249149,0.681225
1298168309149,0.679100
1298168369149,0.693460
1298168429149,0.682476
1298168489149,0.683974
1298168549149,0.688201
1298168609149,0.687246
1298168669149,0.690474
1298168729149,0.684712
1298168789149,0.680667
1298168849149,0.681654
1298168909149,0.689162
1298168969149,0.685754
1298169029149,0.683839
1298169089149,0.685841
1298169149149,0.687275
1298169209149,0.693347
1298169269149,0.690497
1298169329149,0.689160
1298169389149,0.694268
1298169449149,0.696899
1298169509149,0.697870
1298169569149,0.692461
1298169629149,0.697231
1298169689149,0.696077
1298169749149,0.703050
1298169809149,0.704713
1298169869149,0.698495
1298169929149,0.696401
1298169989149,0.703262
1298170049149,0.701701
1298170109149,0.703666
1298170169149,0.704626
1298170229149,0.707640
1298170289149,0.710723
1298170349149,0.712404
1298170409149,0.709699
1298170469149,0.706561
1298170529149,0.712262
1298170589149,0.711015
1298170649149,0.711525
1298170709149,0.722822
1298170769149,0.710311
1298170829160,0.713515
1298170889160,0.710446
1298170949160,0.726628
1298171009160,0.713685
1298171069160,0.715407
1298171129160,0.710625
1298171189160,0.721318
1298171249160,0.721562
1298171309160,0.713614
1298171369160,0.717615
1298171429160,0.720614
1298171489160,0.727130
1298171549160,0.713612
1298171609160,0.719948
1298171669160,0.724291
1298171729160,0.726475
1298171789160,0.725560
1298171849160,0.724113
1298171909160,0.735884
1298171969160,0.738636
1298172029160,0.742512
1298172089160,0.737036
1298172149160,0.741729
1298172209160,0.745776
1298172269160,0.748349
1298172329160,0.746715
1298172389160,0.747541
1298172449160,0.742365
1298172509160,0.741955
1298172569160,0.742615
1298172629160,0.742943
1298172689160,0.740255
1298172749160,0.735063
1298172809160,0.733815
1298172869160,0.734972
1298172929160,0.730328
1298172989160,0.727674
1298173049160,0.728028
1298173109160,0.723559
1298173169160,0.726467
1298173229160,0.724214
1298173289160,0.722549
1298173349160,0.714589
1298173409160,0.726951
1298173469160,0.714222
1298173529160,0.706273
1298173589160,0.701940
1298173649160,0.708964
1298173709160,0.708737
1298173769160,0.717506
1298173829160,0.714394
1298173889160,0.717367
1298173949160,0.722619
1298174009160,0.722713
1298174069160,0.721134
1298174129160,0.721040
1298174189160,0.731590
1298174249160,0.751600
1298174309160,0.755149
1298174369160,0.740958
1298174429172,0.736479
1298174489172,0.723826
1298174549172,0.714724
1298174609172,0.709513
1298174669172,0.707207
1298174729172,0.702930
1298174789172,0.703070
1298174849172,0.708414
1298174909172,0.706041
1298174969172,0.707434
1298175029172,0.701574
1298175089172,0.699705
1298175149172,0.698377
1298175209172,0.700334
1298175269172,0.708147
1298175329172,0.702487
1298175389172,0.698908
1298175449172,0.693826
1298175509172,0.701352
1298175569172,0.698023
1298175629172,0.687322
1298175689172,0.687403
1298175749172,0.689247
1298175809172,0.686649
1298175869172,0.692089
1298175929172,0.695242
1298175989172,0.689213
1298176049172,0.691822
1298176109172,0.685253
1298176169172,0.690909
1298176229172,0.691320
1298176289172,0.688724
1298176349172,0.681717
1298176409172,0.686983
1298176469172,0.680642
1298176529172,0.679865
1298176589172,0.688647
1298176649172,0.690671
1298176709172,0.686696
1298176769172,0.681115
1298176829172,0.676574
1298176889172,0.681831
1298176949172,0.682252
1298177009172,0.682042
1298177069172,0.681704
1298177129172,0.681056
1298177189172,0.679221
1298177249172,0.677697
1298177309172,0.680703
1298177369172,0.677226
1298177429172,0.674398
1298177489172,0.679790
1298177549172,0.675459
1298177609172,0.676795
1298177669172,0.670829
1298177729172,0.673909
1298177789172,0.669516
1298177849172,0.665473
1298177909172,0.679381
1298177969172,0.674272
1298178029184,0.670400
1298178089184,0.665231
1298178149184,0.678606
1298178209184,0.673960
1298178269184,0.674448
1298178329184,0.669555
1298178389184,0.668827
1298178449184,0.667725
1298178509184,0.674522
1298178569184,0.665133
1298178629184,0.671087
1298178689184,0.669453
1298178749184,0.674037
1298178809184,0.673047
1298178869184,0.670972
1298178929184,0.673795
1298178989184,0.670316
1298179049184,0.673824
1298179109184,0.672815
1298179169184,0.672842
1298179229184,0.671248
1298179289184,0.671734
1298179349184,0.672848
1298179409184,0.663093
1298179469184,0.669054
1298179529184,0.668239
1298179589184,0.667174
1298179649184,0.659882
1298179709184,0.663730
1298179769184,0.666078
1298179829184,0.669718
1298179889184,0.665472
1298179949184,0.663052
1298180009184,0.662803
1298180069184,0.656935
1298180129184,0.661269
1298180189184,0.661061
1298180249184,0.661093
1298180309184,0.674994
1298180369184,0.668341
1298180429184,0.666927
1298180489184,0.668863
1298180549184,0.667217
1298180609184,0.666265
1298180669184,0.671199
1298180729184,0.668913
1298180789184,0.662308
1298180849184,0.668078
1298180909184,0.659531
1298180969184,0.664344
1298181029184,0.668674
1298181089184,0.660126
1298181149184,0.667802
1298181209184,0.667642
1298181269184,0.663192
1298181329184,0.665460
1298181389184,0.668286
1298181449184,0.656546
1298181509184,0.657829
1298181569184,0.658200
1298181629196,0.669733
1298181689196,0.664248
1298181749196,0.665715
1298181809196,0.660357
1298181869196,0.665688
1298181929196,0.663306
1298181989196,0.662628
1298182049196,0.654409
1298182109196,0.656000
1298182169196,0.663543
1298182229196,0.660160
1298182289196,0.662086
1298182349196,0.665264
1298182409196,0.667962
1298182469196,0.669697
1298182529196,0.663751
1298182589196,0.666004
1298182649195,0.670711
1298182709195,0.661569
1298182769196,0.667124
1298182829196,0.664276
1298182889196,0.673975
1298182949196,0.660821
1298183009196,0.670445
1298183069196,0.671571
1298183129196,0.669135
1298183189196,0.668477
1298183249196,0.671054
1298183309196,0.678446
1298183369196,0.679024
1298183429196,0.671305
1298183489196,0.670040
1298183549196,0.670759
1298183609196,0.661642
1298183669196,0.674658
1298183729196,0.675717
1298183789196,0.679650
1298183849196,0.671457
1298183909196,0.668795
1298183969196,0.671582
1298184029195,0.676545
1298184089195,0.674261
1298184149196,0.670631
1298184209196,0.672695
1298184269196,0.668684
1298184329196,0.667855
1298184389196,0.671368
1298184449196,0.677512
1298184509196,0.672688
1298184569196,0.676061
1298184629196,0.664931
1298184689196,0.678960
1298184749196,0.674797
1298184809196,0.676962
1298184869196,0.677928
1298184929196,0.675593
1298184989196,0.678771
1298185049196,0.677661
1298185109196,0.683453
1298185169196,0.677813
1298185229207,0.675971
1298185289207,0.680880
1298185349207,0.673386
1298185409207,0.680219
1298185469207,0.674922
1298185529207,0.681010
1298185589207,0.672152
1298185649207,0.673361
1298185709207,0.676029
1298185769207,0.676141
1298185829207,0.674395
1298185889207,0.677031
1298185949207,0.667883
1298186009207,0.669133
1298186069207,0.679029
1298186129207,0.671381
1298186189207,0.669312
1298186249207,0.673509
1298186309207,0.676884
1298186369207,0.672450
1298186429207,0.666692
1298186489207,0.674259
1298186549207,0.675591
1298186609207,0.673388
1298186669207,0.671076
1298186729207,0.673274
1298186789207,0.671677
1298186849207,0.674617
1298186909207,0.673811
1298186969207,0.673824
1298187029207,0.661487
1298187089207,0.671519
1298187149207,0.668086
1298187209207,0.660925
1298187269207,0.670191
1298187329207,0.665205
1298187389207,0.664370
1298187449207,0.671790
1298187509207,0.670200
1298187569207,0.670933
1298187629207,0.660176
1298187689207,0.666618
1298187749207,0.661684
1298187809207,0.665826
1298187869207,0.672603
1298187929207,0.661246
1298187989207,0.663970
1298188049207,0.658171
1298188109207,0.673039
1298188169207,0.658021
1298188229207,0.663488
1298188289207,0.660126
1298188349207,0.654143
1298188409207,0.662420
1298188469207,0.655952
1298188529207,0.664083
1298188589207,0.661121
1298188649207,0.657324
1298188709207,0.656771
1298188769207,0.658899
1298188829219,0.659428
1298188889219,0.661077
1298188949219,0.660446
1298189009219,0.653438
1298189069219,0.649936
1298189129219,0.658763
1298189189219,0.661027
1298189249219,0.659345
1298189309219,0.653708
1298189369219,0.656585
1298189429219,0.661511
1298189489219,0.654018
1298189549219,0.658776
1298189609219,0.657228
1298189669219,0.661057
1298189729219,0.656888
1298189789219,0.653043
1298189849219,0.658799
1298189909219,0.656510
1298189969219,0.659587
1298190029219,0.657700
1298190089219,0.653865
1298190149219,0.660464
1298190209219,0.658419
1298190269219,0.656593
1298190329219,0.655811
1298190389219,0.664110
1298190449219,0.664564
1298190509219,0.653172
1298190569219,0.659730
1298190629219,0.656880
1298190689219,0.654269
1298190749219,0.655634
1298190809219,0.650397
1298190869219,0.660204
1298190929219,0.655347
1298190989219,0.651481
1298191049219,0.658127
1298191109219,0.653261
1298191169219,0.649923
1298191229219,0.650779
1298191289219,0.654457
1298191349219,0.654015
1298191409219,0.657686
1298191469219,0.654612
1298191529219,0.650749
1298191589219,0.653580
1298191649219,0.658194
1298191709219,0.659173
1298191769219,0.648938
1298191829219,0.659069
1298191889219,0.647129
1298191949219,0.657190
1298192009219,0.660037
1298192069219,0.660704
1298192129219,0.651822
1298192189219,0.652273
1298192249219,0.656031
1298192309219,0.651374
1298192369219,0.657423
1298192429231,0.659449
1298192489231,0.658759
1298192549231,0.656585
1298192609231,0.661480
1298192669231,0.659387
1298192729231,0.662776
1298192789231,0.655355
1298192849231,0.653388
1298192909231,0.650424
1298192969231,0.654737
1298193029231,0.658320
1298193089231,0.651721
1298193149231,0.654004
1298193209231,0.656588
1298193269231,0.654710
1298193329231,0.651995
1298193389231,0.660057
1298193449231,0.656965
1298193509231,0.661664
1298193569231,0.657762
1298193629231,0.662988
1298193689231,0.653864
1298193749231,0.656810
1298193809231,0.660359
1298193869231,0.661388
1298193929231,0.657838
1298193989231,0.653255
1298194049231,0.655037
1298194109231,0.661371
1298194169231,0.657766
1298194229231,0.657437
1298194289231,0.659758
1298194349231,0.660277
1298194409231,0.657024
1298194469231,0.660889
1298194529231,0.666835
1298194589231,0.660579
1298194649231,0.668934
1298194709231,0.665438
1298194769231,0.658270
1298194829231,0.658047
1298194889231,0.664512
1298194949231,0.661688
1298195009231,0.661829
1298195069231,0.666443
1298195129231,0.661413
1298195189231,0.665836
1298195249231,0.669156
1298195309231,0.662997
1298195369231,0.665153
1298195429231,0.662424
1298195489231,0.658616
1298195549231,0.663938
1298195609231,0.666752
1298195669231,0.670657
1298195729231,0.660553
1298195789231,0.673317
1298195849231,0.665294
1298195909231,0.667567
1298195969231,0.671144
1298196029244,0.677991
1298196089244,0.671604
1298196149244,0.670661
1298196209244,0.672856
1298196269244,0.673801
1298196329244,0.669895
1298196389244,0.673585
1298196449244,0.666271
1298196509244,0.672477
1298196569244,0.671497
1298196629244,0.672580
1298196689244,0.669733
1298196749244,0.670383
1298196809243,0.669511
1298196869243,0.662973
1298196929244,0.667117
1298196989244,0.666825
1298197049244,0.669131
1298197109244,0.666674
1298197169244,0.671504
1298197229244,0.670334
1298197289244,0.675132
1298197349244,0.667360
1298197409244,0.663960
1298197469244,0.671079
1298197529244,0.665953
1298197589244,0.671880
1298197649244,0.666346
1298197709244,0.667616
1298197769244,0.667658
1298197829244,0.669698
1298197889244,0.671204
1298197949244,0.673213
1298198009244,0.665826
1298198069244,0.655389
1298198129243,0.657189
1298198189243,0.660152
1298198249244,0.660991
1298198309244,0.663252
1298198369244,0.659707
1298198429244,0.660848
1298198489244,0.659333
1298198549244,0.665767
1298198609244,0.666246
1298198669244,0.661007
1298198729244,0.657401
1298198789244,0.659785
1298198849244,0.655059
1298198909244,0.658619
1298198969244,0.657598
1298199029244,0.661099
1298199089244,0.653378
1298199149244,0.655746
1298199209244,0.659043
1298199269244,0.654858
1298199329244,0.649203
1298199389244,0.651616
1298199449244,0.655908
1298199509243,0.659099
1298199569243,0.650865
1298199629256,0.651209
1298199689256,0.658696
1298199749256,0.649663
1298199809256,0.658158
1298199869256,0.648243
1298199929256,0.650614
1298199989256,0.646204
1298200049256,0.646572
1298200109256,0.659054
1298200169256,0.648032
1298200229256,0.649920
1298200289256,0.652623
1298200349256,0.644947
1298200409256,0.641128
1298200469256,0.648085
1298200529256,0.643167
1298200589256,0.642030
1298200649256,0.642115
1298200709256,0.641821
1298200769256,0.646141
1298200829256,0.646677
1298200889256,0.644743
1298200949256,0.646312
1298201009256,0.643169
1298201069256,0.649249
1298201129256,0.645112
1298201189256,0.646983
1298201249256,0.652049
1298201309256,0.646537
1298201369256,0.643489
1298201429256,0.653056
1298201489256,0.650966
1298201549256,0.647584
1298201609256,0.650937
1298201669256,0.644603
1298201729256,0.648668
1298201789256,0.648827
1298201849256,0.644769
1298201909256,0.651183
1298201969256,0.639986
1298202029256,0.643430
1298202089256,0.640557
1298202149256,0.653459
1298202209256,0.647389
1298202269256,0.641389
1298202329256,0.648075
1298202389256,0.642091
1298202449256,0.641426
1298202509256,0.644541
1298202569256,0.646412
1298202629256,0.648184
1298202689256,0.643799
1298202749256,0.645308
1298202809256,0.647367
1298202869256,0.649631
1298202929256,0.645055
1298202989256,0.644396
1298203049256,0.641715
1298203109256,0.644209
1298203169256,0.645432
1298203229268,0.649110
1298203289268,0.644842
1298203349268,0.642534
1298203409268,0.637567
1298203469268,0.643499
1298203529268,0.649749
1298203589268,0.641316
1298203649268,0.643064
1298203709268,0.645296
1298203769268,0.643653
1298203829268,0.645593
1298203889268,0.648235
1298203949268,0.646312
1298204009268,0.648907
1298204069268,0.641254
1298204129268,0.648594
1298204189268,0.650932
1298204249268,0.640802
1298204309268,0.643066
1298204369268,0.645783
1298204429268,0.639649
1298204489268,0.636461
1298204549268,0.642408
1298204609268,0.646245
1298204669268,0.642912
1298204729268,0.642747
1298204789268,0.640251
1298204849268,0.642398
1298204909268,0.647958
1298204969268,0.650891
1298205029268,0.650586
1298205089268,0.649517
1298205149268,0.649343
1298205209268,0.647901
1298205269268,0.646962
1298205329268,0.647266
1298205389268,0.639057
1298205449268,0.641615
1298205509268,0.639276
1298205569268,0.642792
1298205629268,0.647078
1298205689268,0.644407
1298205749268,0.639999
1298205809268,0.638634
1298205869268,0.640560
1298205929268,0.648912
1298205989268,0.643205
1298206049268,0.645358
1298206109268,0.643669
1298206169268,0.646345
1298206229268,0.646882
1298206289268,0.645798
1298206349268,0.644728
1298206409268,0.644138
1298206469268,0.649510
1298206529268,0.641047
1298206589268,0.645770
1298206649268,0.656306
1298206709268,0.647963
1298206769268,0.648388
1298206829280,0.648797
1298206889280,0.646559
1298206949280,0.657380
1298207009280,0.647536
1298207069280,0.647866
1298207129280,0.651898
1298207189280,0.651002
1298207249280,0.644110
1298207309280,0.651232
1298207369280,0.648491
1298207429280,0.650742
1298207489280,0.650565
1298207549280,0.645632
1298207609280,0.639129
1298207669280,0.643326
1298207729280,0.641831
1298207789280,0.655216
1298207849280,0.641630
1298207909280,0.642187
1298207969280,0.650083
1298208029280,0.639553
1298208089280,0.649963
1298208149280,0.636524
1298208209280,0.637955
1298209349280,0.644442
1298209409280,0.643772
1298209469280,0.642936
1298209529280,0.645573
1298209589280,0.633833
1298209649280,0.636286
1298209709280,0.646684
1298209769280,0.638925
1298209829280,0.636423
1298209889280,0.638872
1298209949280,0.635494
1298210009280,0.639164
1298210069280,0.636910
1298210129280,0.636710
1298210189280,0.642926
1298210249280,0.638567
1298210309280,0.640253
1298210369280,0.639936
1298210429292,0.639944
1298210489292,0.637968
1298210549292,0.640305
1298210609292,0.647738
1298210669292,0.642969
1298210729292,0.642623
1298210789292,0.643666
1298210849292,0.644871
1298210909292,0.645565
1298210969292,0.644565
1298211029292,0.647770
1298211089292,0.644858
1298211149292,0.641746
1298211209292,0.650039
1298211269292,0.651175
1298211329292,0.648562
1298211389292,0.648904
1298211449292,0.639084
1298211509292,0.650775
1298211569292,0.645311
1298211629292,0.650807
1298211689292,0.649772
1298211749292,0.649041
1298211809292,0.645419
1298211869292,0.640839
1298211929292,0.652052
1298211989292,0.644173
1298212049292,0.638701
1298212109292,0.651375
1298212169292,0.651552
1298212229292,0.650681
1298212289292,0.647412
1298212349292,0.643501
1298212409292,0.645879
1298212469292,0.642943
1298212529292,0.649116
1298212589292,0.644786
1298212649292,0.648635
1298212709292,0.642128
1298212769292,0.643120
1298212829292,0.646303
1298212889292,0.640992
1298212949292,0.645002
1298213009292,0.641941
1298213069292,0.643924
1298213129292,0.640026
1298213189292,0.643028
1298213249292,0.652389
1298213309292,0.641298
1298213369292,0.643509
1298213429292,0.650927
1298213489292,0.639225
1298213549292,0.643572
1298213609292,0.649152
1298213669292,0.643225
1298213729292,0.648676
1298213789292,0.641075
1298213849292,0.644796
1298213909292,0.640572
1298213969292,0.641976
1298214029304,0.635906
1298214089304,0.638289
1298214149304,0.636039
1298214209304,0.645012
1298214269304,0.644217
1298214329304,0.638022
1298214389304,0.640048
1298214449304,0.675686
1298214509304,0.637012
1298214569304,0.642827
1298214629304,0.641965
1298214689304,0.639859
1298214749304,0.637867
1298214809304,0.634080
1298214869304,0.636474
1298214929304,0.638847
1298214989304,0.644761
1298215049304,0.635347
1298215109304,0.644281
1298215169304,0.635219
1298215229304,0.646398
1298215289304,0.647995
1298215349304,0.635563
1298215409304,0.638213
1298215469304,0.642377
1298215529304,0.637218
1298215589304,0.644133
1298215649304,0.638450
1298215709304,0.638301
1298215769304,0.635499
1298215829304,0.642983
1298215889304,0.641050
1298215949304,0.644002
1298216009304,0.646122
1298216069304,0.640883
1298216129304,0.637826
1298216189304,0.642867
1298216249304,0.637473
1298216309304,0.639746
1298216369304,0.638867
1298216429304,0.642852
1298216489304,0.635864
1298216549304,0.641063
1298216609304,0.641563
1298216669304,0.643342
1298216729304,0.641242
1298216789304,0.643610
1298216849304,0.640929
1298216909304,0.642344
1298216969304,0.643447
1298217029304,0.633780
1298217089304,0.644061
1298217149304,0.642162
1298217209304,0.640075
1298217269304,0.637072
1298217329304,0.638287
1298217389304,0.636461
1298217449304,0.644310
1298217509304,0.642091
1298217569304,0.641644
1298217629316,0.647766
1298217689316,0.643801
1298217749316,0.646686
1298217809316,0.642808
1298217869316,0.640775
1298217929316,0.641275
1298217989316,0.648814
1298218049316,0.645484
1298218109316,0.645977
1298218169316,0.644935
1298218229316,0.643569
1298218289316,0.648873
1298218349316,0.640597
1298218409316,0.643745
1298218469316,0.646553
1298218529316,0.641439
1298218589316,0.645066
1298218649316,0.643263
1298218709316,0.644557
1298218769316,0.644607
1298218829316,0.636260
1298218889316,0.642592
1298218949316,0.642321
1298219009316,0.640374
1298219069316,0.649047
1298219129316,0.644893
1298219189316,0.647689
1298219249316,0.647364
1298219309316,0.651720
1298219369316,0.637475
1298219429316,0.640339
1298219489316,0.644935
1298219549316,0.650097
1298219609316,0.643810
1298219669316,0.644300
1298219729316,0.643153
1298219789316,0.639925
1298219849316,0.637419
1298219909316,0.641395
1298219969316,0.649706
1298220029316,0.644414
1298220089316,0.647522
1298220149316,0.643110
1298220209316,0.642297
1298220269316,0.641905
1298220329316,0.641311
1298220389316,0.640338
1298220449316,0.644469
1298220509316,0.641498
1298220569316,0.650521
1298220629316,0.653740
1298220689316,0.633919
1298220749316,0.643639
1298220809316,0.654644
1298220869316,0.645727
1298220929316,0.643274
1298220989316,0.645957
1298221049316,0.644852
1298221109316,0.643318
1298221169316,0.638069
1298221229328,0.642465
1298221289328,0.639463
1298221349328,0.646137
1298221409328,0.644002
1298221469328,0.641110
1298221529328,0.644477
1298221589328,0.643432
1298221649328,0.644260
1298221709328,0.647411
1298221769328,0.643086
1298221829328,0.647587
1298221889328,0.643756
1298221949328,0.643906
1298222009328,0.645293
1298222069328,0.643447
1298222129328,0.643864
1298222189328,0.646058
1298222249328,0.637698
1298222309328,0.641229
1298222369328,0.639736
1298222429328,0.646767
1298222489328,0.641857
1298222549328,0.646657
1298222609328,0.640925
1298222669328,0.645998
1298222729328,0.642873
1298222789328,0.647087
1298222849328,0.646248
1298222909328,0.651875
1298222969328,0.641961
1298223029328,0.646109
1298223089328,0.644589
1298223149328,0.641551
1298223209328,0.645419
1298223269328,0.648187
1298223329328,0.639132
1298223389328,0.648159
1298223449328,0.642586
1298223509328,0.642078
1298223569328,0.643922
1298223629328,0.650347